Theta_e
342 344 344 345 345 345 346 346 346 346 346 346 346 346 346 346 347 347 347 347 347 346 346 346 347 347 347 347 347 347 347 347 346 344 343 341 339 337 337 336 336 335 334 334 333 333 335 338 341 342 342 344 344 343 342 343 343 341 340 338 336 333 330
340 342 343 343 344 345 345 346 346 346 345 346 346 345 346 345 346 347 346 347 346 346 346 346 346 347 347 346 347 347 347 347 347 346 346 345 342 339 336 335 334 333 333 332 333 333 334 337 340 341 341 343 344 342 342 342 341 340 339 337 335 332 328
339 340 341 342 343 344 344 345 345 345 345 345 345 345 345 344 344 345 344 345 346 345 346 346 346 346 346 346 347 346 347 347 347 347 347 346 345 343 340 337 334 333 332 332 332 333 335 337 339 340 341 342 343 342 341 340 339 338 337 336 335 332 328
338 339 340 341 342 343 343 344 344 345 345 345 345 344 345 344 343 343 343 344 344 344 345 345 345 346 346 346 346 346 347 347 347 347 347 346 346 346 345 342 337 334 332 333 333 334 336 338 339 340 341 342 342 342 341 340 337 336 335 335 335 333 329
338 338 339 339 341 342 342 343 343 345 344 344 344 344 344 344 343 344 343 343 343 343 343 343 344 346 346 346 346 346 346 346 346 346 346 346 346 346 346 346 343 337 333 333 334 335 337 339 340 340 340 341 341 342 342 341 338 336 335 335 335 334 331
338 338 338 338 339 340 341 342 343 343 344 344 344 344 344 344 343 343 343 343 343 343 343 345 345 346 346 346 346 346 346 346 346 347 347 347 346 346 346 346 346 342 336 333 333 335 337 340 340 340 340 341 341 342 342 342 339 337 336 336 336 335 333
338 339 339 339 339 339 340 341 342 342 343 343 343 344 343 343 344 343 343 343 343 343 344 345 346 346 346 346 346 346 346 346 346 347 347 347 347 347 347 346 347 346 342 336 333 334 336 338 340 340 340 340 341 342 342 342 341 339 337 337 336 336 335
339 339 339 339 339 339 339 340 341 342 342 343 343 343 343 343 344 343 343 343 343 344 344 344 345 345 345 346 346 346 346 346 346 347 347 347 347 347 347 347 346 346 346 341 336 333 335 337 338 339 340 340 341 342 342 343 342 340 339 338 337 336 336
339 338 339 340 339 339 340 339 340 340 341 343 342 343 343 343 343 343 343 343 343 344 344 344 344 344 345 346 346 346 346 346 346 347 347 347 347 347 347 347 347 347 347 345 339 334 334 336 337 338 340 340 340 341 342 343 343 342 340 339 338 337 336
339 338 339 340 339 340 340 339 340 340 340 342 342 343 343 343 343 343 343 343 343 344 343 344 344 345 346 346 346 346 347 346 347 347 347 347 347 347 347 347 347 348 348 347 344 339 335 335 336 337 339 340 340 340 341 342 342 342 341 340 339 338 338
337 338 338 339 339 340 340 339 340 340 341 341 342 342 343 343 343 343 343 343 343 343 344 344 345 346 346 346 346 347 347 347 347 347 347 347 347 348 347 348 348 348 348 349 348 344 338 335 335 336 337 338 339 339 339 340 341 342 341 340 339 339 338
334 337 338 338 339 340 341 341 341 340 340 341 341 342 342 343 343 343 343 343 343 343 343 344 345 345 346 346 347 347 347 347 347 347 347 347 348 348 348 348 348 348 349 349 349 347 342 336 335 335 336 337 338 339 338 339 340 341 341 340 340 339 339
334 336 337 338 339 340 340 342 341 341 341 341 341 342 342 342 343 343 343 343 343 343 344 344 345 345 346 347 347 347 347 347 347 347 347 347 348 348 348 348 348 348 349 350 350 349 345 338 335 335 336 337 337 338 338 338 339 340 340 341 340 340 340
333 335 336 338 338 339 341 341 342 342 342 341 341 341 342 343 342 343 343 343 343 344 344 344 345 345 346 347 347 348 347 346 347 347 347 347 347 348 348 348 348 349 349 350 351 350 346 340 336 335 336 337 337 338 338 338 338 339 340 340 340 340 340
332 332 333 336 337 339 341 340 341 342 342 342 342 341 342 342 343 343 343 343 344 343 344 345 345 345 346 347 347 347 346 347 347 347 347 348 348 348 348 348 349 349 350 351 352 351 347 342 338 337 336 337 337 338 338 337 337 338 338 338 339 339 340
327 327 328 332 335 337 339 340 341 342 342 343 342 342 343 342 343 343 343 343 344 343 345 345 345 346 346 347 346 346 347 348 348 348 348 348 348 348 348 349 349 350 350 351 352 351 348 345 342 338 336 336 337 337 337 337 336 336 337 337 338 338 340
326 328 328 329 332 335 338 340 340 342 343 343 343 343 343 343 343 343 343 344 344 344 345 345 345 346 346 346 347 347 348 349 349 349 349 348 349 349 349 349 350 350 351 351 353 352 350 347 343 339 337 336 336 336 336 336 336 336 336 336 337 338 339
329 329 329 330 331 333 336 338 341 341 342 343 343 343 343 343 344 343 344 344 344 344 345 346 346 346 346 346 347 347 349 349 349 350 349 349 349 348 349 350 350 351 351 352 353 352 352 348 343 340 339 337 335 335 335 336 336 336 336 336 337 338 339
331 330 330 333 334 335 336 337 339 341 341 343 343 343 344 344 344 344 344 344 345 345 345 346 346 347 346 347 347 348 348 349 350 350 349 349 349 350 350 350 350 351 351 351 353 353 352 349 343 341 339 337 335 333 334 335 336 336 336 337 337 338 339
334 332 332 335 336 337 339 338 339 341 341 342 343 342 343 344 344 345 345 345 345 345 345 346 346 346 347 347 348 348 349 349 350 350 350 350 350 351 351 351 351 351 351 352 353 353 353 350 345 341 339 336 334 332 333 334 335 336 336 337 337 339 340
339 338 337 338 338 338 340 340 340 341 341 342 343 343 344 344 344 344 345 345 346 346 346 346 346 347 348 348 349 349 349 350 350 350 351 351 351 352 352 351 351 352 352 353 353 353 354 352 349 344 338 335 334 334 333 333 334 336 336 337 338 339 341
341 340 340 341 340 339 341 341 340 341 341 341 343 343 343 344 344 345 345 345 346 346 346 346 347 347 348 349 349 350 350 350 350 351 352 353 353 353 352 352 352 352 353 354 354 354 355 355 353 348 342 339 337 335 333 332 333 335 336 337 338 340 342
345 344 342 342 342 341 341 341 341 342 342 341 342 342 343 344 344 345 346 346 346 347 347 347 348 348 348 349 349 350 351 351 352 352 353 354 354 354 353 353 353 353 354 355 355 355 355 355 355 353 350 347 343 338 334 332 333 334 335 337 338 340 343
348 346 344 342 343 344 342 342 341 340 341 341 342 342 343 343 344 345 345 345 346 348 348 348 348 347 348 348 349 350 351 352 352 353 353 354 354 353 353 353 353 354 355 355 355 355 356 356 356 356 355 353 348 341 336 334 333 334 335 336 337 341 343
350 349 346 343 342 342 343 344 343 342 342 342 342 342 342 343 344 344 345 345 346 347 347 347 347 347 348 348 348 350 351 351 353 353 354 354 354 354 354 354 354 355 355 355 355 355 355 356 356 356 356 355 353 349 344 340 337 335 335 336 337 341 345
351 352 350 347 344 341 340 340 342 345 346 345 344 344 343 343 344 344 344 345 346 346 346 346 346 347 348 348 349 350 351 352 352 353 354 353 353 353 354 354 355 355 356 356 356 355 356 356 356 356 356 356 355 353 351 348 343 339 336 337 338 341 346
353 353 353 352 350 347 344 341 342 344 346 348 348 347 345 345 344 344 344 345 345 346 345 345 346 347 348 349 350 350 351 352 352 352 352 351 351 352 353 354 355 355 355 356 356 356 357 357 357 357 357 357 356 355 353 351 348 344 340 339 341 344 348
352 353 353 352 350 348 345 344 344 344 343 345 347 348 349 347 346 346 345 345 345 346 345 346 348 348 348 349 350 350 350 350 350 351 351 351 352 353 354 354 354 355 356 356 357 358 358 358 358 358 358 357 357 356 354 353 351 348 345 343 344 346 350
348 348 348 346 343 344 344 341 341 342 343 345 346 347 349 349 350 350 349 348 347 347 347 348 348 348 349 349 349 349 349 350 350 351 352 352 353 353 354 354 354 355 357 357 358 359 359 359 359 359 358 358 357 357 355 354 353 351 348 347 348 349 351
344 345 346 345 344 346 347 344 342 342 343 344 347 349 351 351 351 352 352 352 352 351 351 351 350 350 350 350 349 350 349 349 350 351 352 353 353 354 356 356 355 355 356 358 359 359 359 359 359 359 359 358 357 357 356 355 354 351 349 350 351 352 352
341 344 347 347 346 346 345 346 348 349 347 349 351 354 356 357 356 355 356 355 355 355 356 356 355 355 354 353 353 352 352 352 351 352 352 352 353 354 355 356 358 358 358 359 360 360 360 360 359 360 359 358 358 357 356 356 355 352 351 352 353 353 354
342 344 346 346 347 348 348 349 352 353 353 354 355 356 358 359 359 359 359 359 358 358 358 357 358 358 358 357 357 356 355 354 353 353 353 353 354 355 355 356 358 359 359 360 360 359 360 360 360 359 359 359 359 358 357 357 356 354 354 354 354 355 355
343 342 342 342 344 346 346 347 349 352 353 354 355 354 354 355 356 356 357 358 359 359 359 360 360 360 360 360 359 359 358 357 357 357 356 355 355 355 356 357 358 359 359 360 359 360 360 360 360 360 359 359 359 358 358 358 357 357 356 355 355 356 356
348 347 346 345 343 342 341 341 343 347 351 353 353 353 353 352 352 352 352 353 353 354 356 357 359 360 361 362 362 361 360 359 358 358 357 356 356 356 357 357 358 358 359 359 359 359 360 360 360 359 359 359 359 358 358 358 358 358 357 356 356 356 356
346 347 348 349 348 347 347 346 347 348 350 350 351 351 351 351 350 350 350 349 349 349 349 349 351 353 356 358 361 362 362 362 362 360 359 358 358 357 357 357 357 358 359 359 359 359 359 359 359 359 359 359 359 359 359 359 358 358 358 357 357 356 357
343 344 344 345 346 347 348 348 348 347 348 348 348 348 348 348 348 347 347 347 347 346 347 346 346 347 348 350 353 356 358 360 361 362 362 362 362 360 359 358 358 358 358 358 359 360 360 359 359 358 359 359 359 360 359 359 358 358 357 357 358 358 358
343 343 344 344 344 345 345 345 346 347 347 347 347 347 347 346 345 345 345 345 345 344 344 344 345 346 347 347 347 348 351 355 358 361 363 363 364 364 362 361 360 359 359 360 359 359 360 360 360 360 359 358 359 359 359 359 358 356 354 356 357 357 355
343 344 344 344 344 345 345 346 346 346 345 344 343 343 343 341 340 340 340 341 342 343 343 344 345 345 345 345 345 346 347 349 351 353 354 354 356 356 355 354 353 352 354 358 360 359 359 360 360 360 360 359 359 358 358 359 357 353 353 355 354 351 348
Wind_Speed
42 43 46 48 49 49 51 53 53 54 54 55 55 55 54 54 54 54 54 53 53 52 51 50 49 49 48 46 44 42 40 38 36 36 36 36 35 35 34 33 32 32 32 32 31 29 28 27 27 27 27 26 25 23 22 21 20 20 19 19 19 18 18
35 39 44 46 48 50 52 53 53 54 54 55 56 56 55 55 55 55 54 54 54 52 51 51 51 50 49 47 45 44 42 40 38 37 36 35 34 34 34 33 32 32 32 32 31 30 30 29 28 27 27 27 26 24 22 21 21 21 20 20 20 19 18
34 39 44 47 50 52 53 53 53 54 55 55 55 56 56 56 56 55 55 54 54 53 52 52 52 51 50 48 47 46 45 43 41 39 38 36 34 33 33 33 32 31 31 31 31 31 30 30 29 28 27 27 26 25 23 21 21 22 21 21 21 20 20
35 39 44 47 50 52 52 53 54 55 56 56 56 57 58 58 56 55 55 54 54 53 53 53 53 52 51 50 49 47 46 45 43 41 39 37 35 34 33 33 33 32 32 31 31 31 31 30 30 29 28 27 27 26 24 22 22 22 22 22 23 22 21
37 38 40 42 46 48 50 52 54 56 56 57 57 57 58 58 57 56 55 55 54 53 52 51 52 52 52 51 50 48 47 45 44 43 41 39 37 36 35 34 33 33 33 32 32 31 31 31 30 30 29 28 27 27 25 23 22 23 23 23 23 23 23
38 37 38 41 46 49 51 53 55 57 58 58 57 58 58 57 56 56 56 56 55 55 53 52 53 53 52 52 51 50 48 47 46 44 43 41 39 38 37 35 34 33 33 33 33 32 32 31 31 31 30 29 28 28 26 24 24 24 24 24 25 24 24
39 39 40 43 45 48 51 53 54 56 57 58 57 57 57 56 56 57 57 56 56 56 55 55 54 54 53 52 52 51 50 49 47 46 45 43 42 41 38 36 35 33 33 34 35 34 33 33 32 32 31 30 29 29 27 26 25 25 25 25 26 26 26
41 39 39 41 43 46 49 52 53 54 55 56 55 55 55 55 55 56 56 57 57 56 56 56 55 55 54 53 52 52 50 49 48 47 46 45 44 43 40 38 36 34 33 34 36 36 35 34 33 33 32 31 30 30 29 28 27 26 26 26 27 27 27
39 36 38 40 42 44 47 50 53 53 53 54 55 55 55 54 55 56 56 57 57 56 57 56 56 55 54 54 54 53 51 50 49 48 48 47 46 45 42 40 37 35 35 34 35 36 36 36 35 34 34 33 32 31 30 30 29 28 28 28 28 28 28
37 36 39 40 39 41 43 46 48 48 50 53 54 55 55 55 56 56 56 57 56 57 57 56 56 55 54 55 54 53 52 52 51 50 49 48 47 46 44 41 39 37 36 35 35 37 37 37 36 36 36 36 35 34 33 32 31 30 30 30 30 29 29
34 35 35 35 34 36 38 41 44 47 50 52 54 55 54 55 55 56 56 56 56 57 57 56 55 54 55 55 54 54 53 53 52 51 51 50 49 47 45 42 40 39 38 37 36 37 37 38 38 38 38 38 37 36 35 34 33 32 32 31 31 31 30
28 28 29 31 33 34 37 41 45 48 50 52 53 54 54 54 55 55 56 56 57 57 56 55 55 54 55 55 54 54 54 53 53 52 51 50 49 47 45 43 42 41 40 38 37 37 38 39 40 40 40 39 38 37 37 36 35 34 33 32 32 32 31
23 24 27 29 32 35 37 41 45 48 49 51 52 53 54 54 55 55 56 56 57 56 55 55 55 54 54 54 54 55 54 54 53 52 51 50 49 47 45 44 43 42 41 39 38 38 39 40 41 41 40 40 39 39 38 37 36 35 34 34 33 33 32
20 20 24 26 30 34 37 40 44 47 49 50 51 52 52 54 55 55 56 57 56 55 55 54 54 54 54 54 55 55 55 54 53 52 51 50 48 47 45 44 43 43 42 40 40 40 40 41 42 41 41 41 40 39 39 38 38 37 36 35 34 34 34
20 20 23 26 30 34 37 40 43 46 48 49 50 51 51 52 54 54 55 56 55 54 54 54 54 54 54 54 55 56 55 54 53 52 51 50 49 47 46 44 43 43 42 41 41 40 40 41 41 42 42 42 41 40 40 40 40 39 37 36 35 35 35
22 24 25 27 30 34 37 39 42 45 47 48 49 50 51 52 53 54 55 55 54 54 54 53 53 53 54 54 55 55 54 54 53 53 52 51 49 48 46 44 43 43 42 41 41 41 41 41 42 43 43 43 42 41 41 41 41 39 37 36 36 36 36
23 24 25 26 28 31 34 37 41 44 46 47 48 49 50 51 52 53 53 54 54 54 54 53 53 53 54 54 54 54 54 54 54 53 52 51 49 48 47 45 44 43 42 42 41 41 41 42 43 44 44 44 43 42 42 42 41 39 37 36 36 36 36
20 20 22 25 25 28 32 36 41 44 45 47 48 49 49 50 50 51 52 53 54 54 53 53 53 53 53 53 53 53 53 53 53 53 53 51 50 48 47 46 45 44 43 43 43 42 42 43 44 44 44 44 44 44 43 42 40 38 37 37 36 35 35
18 19 22 24 23 25 29 34 39 43 45 46 47 47 46 47 49 50 50 51 52 53 52 52 53 53 53 53 53 53 53 53 53 53 53 52 50 49 49 48 48 47 45 45 44 43 43 44 44 45 45 45 45 45 44 43 40 38 38 37 36 35 34
17 19 22 22 21 22 27 31 35 40 42 44 44 43 43 45 47 47 47 49 50 51 52 52 52 53 53 53 53 53 52 52 52 53 53 52 51 50 50 50 50 48 47 47 46 46 46 45 45 45 46 46 46 46 45 43 40 39 38 37 36 34 33
13 17 19 18 17 20 24 27 31 36 39 41 42 42 43 44 45 46 48 49 49 50 51 51 51 52 52 52 52 52 52 52 52 53 53 52 51 51 51 51 50 49 49 49 49 48 48 46 45 46 47 47 46 46 46 43 41 40 39 38 36 34 33
10 13 14 14 15 18 21 24 27 31 35 39 41 42 43 43 44 46 47 48 49 50 50 50 50 51 51 51 51 52 52 52 52 52 52 52 51 51 52 52 51 50 50 50 50 50 50 49 48 47 48 47 47 47 46 44 42 41 40 38 36 35 35
4 6 8 10 12 15 18 20 22 23 26 31 36 38 40 41 42 43 44 45 46 47 47 48 49 49 49 50 51 51 51 51 52 52 52 51 52 52 52 51 51 51 50 51 51 52 52 51 50 49 49 48 48 48 47 45 44 42 41 38 37 36 36
3 2 1 3 6 9 13 16 18 19 20 24 27 31 34 37 39 40 41 42 44 44 44 45 46 47 48 49 49 50 50 50 50 51 51 51 51 51 51 50 50 50 51 51 51 52 52 51 51 51 51 50 49 48 47 46 44 43 41 39 38 38 37
8 8 7 5 2 2 5 8 11 13 15 17 20 23 27 31 34 36 38 40 41 41 42 43 46 47 46 45 46 47 48 48 49 50 51 51 51 51 50 50 50 50 50 51 51 51 51 50 51 52 52 51 50 49 48 47 45 44 42 41 40 39 38
13 13 13 13 11 9 6 4 4 6 9 11 13 15 19 23 27 31 34 36 38 40 40 40 42 44 43 42 44 45 46 47 48 49 49 49 49 49 49 49 49 49 50 51 51 51 51 50 51 51 51 51 51 50 49 48 47 45 44 42 41 39 39
14 15 15 16 15 15 14 13 10 7 6 7 8 9 12 16 20 24 28 32 36 39 38 36 37 39 41 41 43 44 45 46 47 48 48 46 46 46 48 48 49 50 51 51 52 52 53 52 52 51 50 50 49 49 49 49 48 46 45 44 42 40 39
13 14 15 15 15 15 16 16 15 12 9 6 3 5 8 11 14 17 21 26 30 33 35 35 36 38 39 40 41 42 43 44 46 47 48 47 47 48 49 48 49 50 51 52 53 53 53 53 52 50 50 49 49 49 48 48 48 47 45 44 43 41 39
13 13 13 13 14 14 14 13 14 14 13 11 7 3 6 9 11 13 17 21 23 26 30 33 34 35 36 38 39 40 41 43 46 48 49 49 50 51 51 50 49 50 51 53 54 53 53 52 51 50 50 49 49 48 48 48 47 46 45 44 42 40 38
12 12 12 12 13 13 13 12 12 11 10 9 8 5 3 5 8 10 13 16 19 22 25 27 30 32 34 35 37 38 39 42 44 47 48 49 50 51 52 52 51 51 52 53 53 52 51 52 52 51 51 51 50 49 48 47 46 45 44 43 41 38 35
11 11 11 11 11 11 11 10 10 9 8 7 6 5 3 2 3 6 9 12 15 18 20 21 24 27 30 32 34 36 37 40 43 45 47 48 49 51 52 53 52 51 51 50 50 51 52 53 53 53 53 53 52 51 49 48 46 44 43 41 39 37 34
11 10 9 9 9 9 8 8 7 6 7 6 5 4 4 3 1 1 5 8 10 12 14 16 18 21 24 27 30 32 34 37 41 43 45 47 49 51 51 51 50 49 49 49 51 53 54 54 54 54 54 54 53 52 51 49 47 44 42 40 38 36 33
11 9 8 8 8 6 5 5 4 4 4 4 3 4 4 4 4 4 5 6 7 9 11 13 14 17 19 22 25 28 31 35 37 40 42 45 47 49 49 49 49 50 52 53 54 55 56 56 56 56 56 55 54 53 51 49 48 45 42 40 39 36 32
12 10 8 7 5 4 3 2 1 0 1 3 3 4 5 5 6 7 8 9 9 9 9 10 11 13 16 19 22 25 28 31 34 36 38 41 43 45 47 48 50 52 55 57 58 58 58 58 58 58 58 57 55 52 51 48 47 45 43 41 38 34 32
16 14 11 9 7 5 4 3 1 0 1 2 3 5 6 7 8 9 10 12 13 13 13 13 12 12 12 14 17 21 24 27 29 31 33 35 38 42 45 48 51 54 56 59 60 61 61 61 61 61 60 57 55 54 54 50 46 43 41 37 34 31 30
20 18 15 13 12 10 9 8 6 5 4 4 4 5 6 7 9 10 12 14 16 17 18 18 17 17 15 14 14 16 18 20 23 25 27 29 32 36 40 45 49 52 56 58 59 60 62 62 61 59 58 57 57 57 55 49 42 37 34 31 31 30 29
22 21 18 17 16 15 14 13 11 11 10 9 8 7 6 6 6 6 7 8 10 12 14 15 16 17 17 17 16 15 15 15 16 18 21 23 27 30 34 39 44 49 54 57 58 58 60 61 61 60 58 58 59 57 51 45 37 30 26 26 29 30 28
24 23 21 20 19 18 17 16 15 15 14 14 13 13 13 13 14 13 11 9 7 5 6 8 10 11 12 14 14 13 13 12 11 12 14 17 20 23 26 30 35 38 42 50 57 60 62 62 61 60 59 59 58 53 47 42 35 27 24 27 30 30 29
Wind_Direction
216 213 214 215 216 216 217 218 218 219 220 219 219 221 222 222 223 223 224 225 226 227 227 227 227 227 228 228 228 229 231 231 230 230 232 234 235 236 236 235 236 237 239 240 242 243 243 242 241 241 240 242 244 246 248 249 249 248 248 248 247 246 245
216 214 214 214 216 217 219 219 218 219 220 220 220 220 221 223 223 224 225 226 227 228 228 228 228 228 229 230 229 229 230 231 232 232 233 233 234 235 235 235 236 237 239 240 242 243 244 244 243 242 241 241 244 246 248 249 248 246 246 246 246 244 243
217 216 215 214 215 217 218 218 218 219 219 220 220 220 221 223 225 226 227 227 228 228 228 229 229 230 230 230 230 230 230 230 231 233 234 234 234 234 234 235 235 237 238 239 240 241 242 244 244 243 241 241 243 246 248 249 248 244 242 244 244 243 242
221 219 217 216 216 217 218 217 218 219 220 221 221 222 223 224 226 227 227 228 229 229 228 229 230 230 231 231 231 232 231 231 231 232 234 236 236 236 236 236 235 235 237 238 237 239 240 242 244 243 241 241 242 244 247 248 246 242 241 242 243 243 242
226 222 218 216 216 216 217 218 218 219 220 221 221 222 224 225 225 225 227 229 230 231 231 231 231 230 231 231 232 233 233 233 233 233 234 235 236 237 238 238 236 235 236 237 237 237 238 239 241 242 241 241 242 244 246 246 245 242 241 242 243 244 242
227 222 218 216 215 215 216 218 219 219 220 221 221 222 224 223 223 224 227 228 229 231 232 231 230 230 231 232 233 234 234 234 234 234 234 235 236 237 238 239 238 236 236 237 238 238 237 238 239 240 241 242 243 245 246 246 245 243 242 243 243 245 245
227 224 220 218 216 215 216 218 219 219 220 221 222 222 222 221 221 223 226 227 228 230 229 229 230 231 232 233 233 233 234 235 235 235 235 235 236 237 238 240 240 239 237 237 238 239 238 238 238 239 240 242 244 245 247 247 245 245 244 244 243 244 246
229 226 223 222 219 217 217 217 219 219 219 220 220 220 220 220 221 222 223 226 228 228 228 229 230 231 232 233 233 234 235 236 236 236 236 236 236 237 238 239 241 241 239 237 238 239 239 239 239 239 240 241 243 245 246 247 246 246 245 246 245 244 246
231 229 227 226 223 219 217 218 219 218 218 218 218 219 219 219 220 221 223 225 226 226 228 230 231 231 232 232 233 235 235 236 236 237 237 237 237 238 238 239 240 241 241 239 238 238 240 240 240 240 240 241 242 243 245 246 247 246 246 247 247 247 248
232 231 230 229 225 221 218 218 218 217 217 217 218 218 218 219 220 222 223 224 225 227 230 230 230 230 230 231 233 234 234 235 236 236 237 238 238 238 238 239 240 241 242 241 239 239 239 240 241 241 241 241 241 242 243 245 246 246 247 248 249 250 250
234 233 231 228 225 221 216 216 217 217 217 217 217 217 217 218 220 221 223 224 225 228 230 229 228 228 229 231 232 232 233 234 235 236 237 238 238 239 239 240 240 241 242 242 241 240 239 240 240 240 241 241 241 241 242 243 244 245 247 249 251 251 252
240 236 232 228 226 222 217 217 218 218 218 218 218 217 217 218 219 221 223 225 227 230 229 228 227 228 229 230 230 231 233 234 235 236 237 238 238 239 240 240 240 241 242 242 242 241 239 239 240 240 241 241 241 241 242 242 243 244 246 248 251 252 253
245 239 236 234 229 224 219 218 219 219 220 219 218 218 218 218 219 221 223 226 228 229 228 227 227 227 228 229 230 231 233 235 236 237 237 238 239 240 240 240 240 240 241 242 242 241 239 238 239 239 240 241 242 242 242 243 243 243 245 247 250 251 253
248 241 238 235 232 226 221 220 221 220 220 219 218 218 219 219 221 222 225 227 228 227 227 227 227 227 228 229 229 232 235 236 236 237 237 238 239 240 240 240 240 240 241 242 242 241 239 238 238 239 240 241 242 242 242 243 243 243 243 245 247 250 252
254 251 244 237 233 229 224 223 224 221 220 219 218 218 219 219 221 222 224 227 227 226 227 227 227 228 228 228 231 234 236 235 235 235 236 237 238 239 239 239 240 240 241 241 242 241 239 238 238 238 239 240 241 242 242 242 242 242 242 244 246 248 250
256 256 251 243 237 232 227 226 226 223 220 218 217 218 219 220 221 223 225 226 226 227 227 226 227 228 228 230 233 235 234 233 234 234 235 236 237 238 238 238 238 239 240 240 241 241 239 238 238 237 238 239 240 241 242 242 242 242 242 243 245 248 250
258 259 260 257 249 239 231 228 226 223 219 218 219 220 220 222 224 224 226 226 226 228 228 226 227 228 229 233 235 234 232 232 232 233 234 235 236 237 237 236 237 237 238 239 240 240 239 238 237 236 236 238 239 240 241 242 242 242 243 244 245 247 250
261 266 270 269 260 248 237 230 226 223 220 220 221 221 222 224 225 225 226 226 228 229 227 226 227 229 232 235 234 231 231 232 232 232 234 235 235 236 236 236 235 236 237 237 238 238 239 237 236 236 236 237 238 239 240 241 242 242 243 244 245 247 251
265 272 274 271 266 255 243 235 229 226 224 222 221 222 225 226 226 227 230 230 230 228 226 226 229 231 233 233 231 231 232 232 232 232 234 235 235 235 235 235 235 235 235 236 237 238 238 237 236 236 236 237 238 238 240 241 242 242 243 244 245 247 250
266 272 274 273 270 259 247 238 232 229 227 225 225 227 229 228 229 231 232 230 228 226 226 228 230 231 232 231 230 231 232 231 232 234 234 235 234 233 234 235 236 236 236 236 237 237 238 237 237 236 236 236 237 239 240 241 242 242 243 244 246 247 249
260 265 269 272 268 256 246 238 232 229 228 228 228 228 228 229 230 230 228 227 227 227 228 230 231 232 232 231 230 230 231 231 233 234 234 233 232 233 234 235 236 237 237 237 237 238 238 238 238 237 237 237 237 239 240 241 242 243 244 245 246 247 249
251 259 263 263 256 248 244 242 238 234 231 229 228 227 228 230 230 228 227 227 228 228 229 229 231 231 231 231 231 231 231 232 232 233 232 231 231 232 234 235 237 237 237 238 239 240 240 240 239 239 238 238 239 240 240 241 242 243 244 246 247 248 249
235 253 260 259 251 241 238 240 241 239 235 232 231 231 231 231 230 228 227 227 227 227 227 228 229 231 233 233 234 234 233 232 231 231 231 230 230 232 234 236 237 237 237 238 239 240 240 241 241 241 241 241 240 241 241 241 242 243 244 246 247 248 249
128 129 216 258 251 239 231 231 235 235 234 233 234 234 234 233 231 230 229 228 228 227 227 230 232 234 234 236 237 236 235 234 233 232 232 232 233 235 236 237 238 238 238 238 239 241 242 243 243 243 243 243 242 242 242 243 243 244 245 246 247 248 249
101 93 89 87 88 225 226 227 231 230 230 234 236 235 235 233 232 233 232 231 231 230 231 235 238 237 237 239 240 239 237 236 235 234 234 235 237 238 238 238 238 238 239 239 240 242 243 244 245 245 245 245 244 244 244 245 245 246 246 247 247 248 249
98 92 87 84 80 80 92 121 175 197 206 218 224 229 233 233 231 233 234 234 232 231 233 238 242 242 242 242 239 238 238 238 237 237 237 239 241 241 241 240 239 239 239 240 241 241 242 243 244 245 246 246 246 246 245 245 245 246 246 247 248 248 248
98 92 86 83 81 79 80 85 93 116 158 186 203 213 223 230 231 233 235 234 233 235 237 240 242 243 242 240 239 238 239 239 239 240 242 244 245 243 241 240 240 240 240 241 240 239 239 240 240 242 245 246 247 247 247 246 246 245 246 247 248 248 248
106 99 93 88 84 82 80 80 82 84 89 103 156 210 220 230 235 237 239 239 240 244 246 243 242 242 242 242 242 241 242 243 243 243 243 244 243 241 240 241 241 240 240 240 239 238 237 237 237 238 241 244 245 247 248 248 247 247 246 247 248 248 248
113 105 101 95 86 83 80 79 80 77 74 75 82 146 209 223 230 236 244 246 248 251 250 248 248 248 247 248 247 247 247 247 246 245 243 242 241 240 241 240 239 240 240 238 237 236 235 235 235 236 238 241 242 245 247 248 248 247 247 247 248 248 248
103 96 94 91 87 85 82 81 80 77 74 71 70 81 139 196 211 221 232 239 244 247 248 250 252 251 251 251 251 251 251 251 249 247 246 244 242 241 241 240 239 239 238 236 233 233 233 234 234 235 236 238 240 242 243 244 246 247 247 247 247 248 248
98 89 84 84 87 88 87 86 82 79 80 75 65 66 81 117 184 210 222 230 237 242 246 248 251 251 252 252 252 253 253 251 250 249 248 246 244 242 242 241 238 236 234 231 230 231 233 234 233 233 234 235 236 238 239 240 241 243 244 246 246 246 246
95 90 87 85 84 82 85 90 89 85 82 72 60 49 39 36 42 234 239 243 247 250 252 254 254 254 254 254 254 255 254 253 252 250 249 247 244 243 243 241 237 234 233 232 232 233 233 233 232 232 232 233 234 236 236 237 237 239 240 241 241 241 241
85 84 82 80 77 77 86 91 90 89 79 64 52 36 14 358 351 336 311 294 284 273 267 265 261 260 259 256 255 253 252 253 254 253 252 250 246 244 243 240 238 237 235 234 234 233 232 232 231 230 230 231 232 232 232 234 235 236 236 236 235 235 234
76 76 76 79 84 91 109 123 115 61 13 4 6 358 342 330 326 320 315 314 310 304 299 291 278 270 266 262 260 256 253 251 252 252 253 253 251 249 248 245 243 240 237 237 236 234 232 231 231 231 231 229 227 226 227 230 235 236 235 234 233 231 229
82 79 76 75 75 76 89 102 103 288 314 326 325 318 312 308 307 305 304 305 306 308 310 310 307 302 290 277 269 265 261 259 258 257 256 255 255 255 254 252 250 246 243 243 242 240 238 236 234 234 234 230 227 227 227 227 230 233 233 234 234 232 228
87 83 77 72 70 67 65 61 53 48 42 22 353 331 318 309 303 299 296 294 294 296 297 298 300 303 302 297 288 278 271 269 266 264 264 262 260 259 258 257 255 252 249 248 246 244 243 241 239 240 239 235 232 232 233 232 229 226 226 230 233 229 221
88 86 82 77 74 71 68 67 65 65 67 66 62 58 47 30 13 351 326 308 297 292 291 291 292 294 297 298 297 292 286 279 272 269 268 267 265 264 263 262 261 257 252 249 248 246 244 241 239 239 240 238 234 231 232 232 229 223 221 221 217 211 200
90 88 85 79 74 71 70 71 75 78 83 86 85 82 76 68 60 52 44 34 17 342 316 303 298 299 302 303 305 309 309 306 302 297 293 288 283 280 278 279 280 276 265 255 251 249 245 242 238 234 234 235 234 231 229 228 223 215 206 198 192 188 184